Location: Rock Island IL
(41.5000°N, 90.5500°W)
Time: 19:55:43
(UTC-05:00)

Tiangong 2 - Visible Passes

Search period start: 22 June 2018 00:00
Search period end: 02 July 2018 00:00
Orbit: 291 x 296 km, 42.8° (Epoch: 21 June)

Date Brightness Start Highest point End Pass type
(mag) Time Alt. Az. Time Alt. Az. Time Alt. Az.
27 Jun 3.2 03:51:00 11° SE 03:51:00 11° SE 03:51:38 10° SE visible
28 Jun 2.3 03:56:12 20° SSE 03:56:20 20° SSE 03:58:20 10° E visible
29 Jun 1.3 04:01:18 32° S 04:01:48 36° SSE 04:04:12 10° E visible
30 Jun 0.5 04:06:18 33° SW 04:07:14 64° SSE 04:09:46 10° E visible
01 Jul 0.5 04:11:14 23° W 04:12:40 83° NNW 04:15:13 10° ENE visible
